Location: Lasqueti Island Observatory
(49.4855°N, 124.2726°W)
Time: 17:37:36
(UTC-07:00)

Daily predictions for brighter satellites

Satellite Brightness Start Highest point End
(mag) Time Altitude Azimuth Time Altitude Azimuth Time Altitude Azimuth
SPOT 5 3.6 21:39:10 10° SE 21:44:15 46° ENE 21:49:16 10° N
MetOp-B 4.3 21:39:33 10° SSE 21:44:50 62° ENE 21:50:07 10° N
Tsikada Rocket 4.4 21:40:03 10° SSW 21:46:15 69° WNW 21:52:26 10° N
CZ-4B DEB 2.9 21:43:37 10° S 21:46:32 65° WSW 21:49:29 10° NNW
Aureole 3 3.2 21:46:56 10° SSE 21:49:45 37° E 21:52:34 10° NNE
Meteor 1-29 2.9 21:48:42 10° NNE 21:52:13 72° ESE 21:55:42 10° S
Lacrosse 4 Rocket 2.0 21:48:04 10° NNW 21:52:30 52° NE 21:56:52 10° SE
ARGOS 3.3 21:48:57 10° SSE 21:54:14 62° ENE 21:59:33 10° N
Meteor 2-3 Rocket 3.9 21:48:44 10° SSW 21:54:27 84° WNW 22:00:09 10° N
Cosmos 1408 3.2 21:52:25 10° SSE 21:55:53 39° E 21:59:24 10° NNE
H-2A R/B 2.6 21:54:24 10° SE 21:59:35 48° ENE 22:04:40 10° N
Cosmos 1825 2.7 21:56:50 10° SSE 22:00:25 41° E 22:03:59 10° NNE
Cosmos 1634 Rocket 4.3 21:54:28 10° NNW 22:00:45 74° W 22:07:02 10° S
Cosmos 1937 Rocket 4.1 21:57:39 10° SW 22:02:43 61° WNW 22:07:52 10° NNE
Cosmos 1862 4.4 22:00:29 10° SSE 22:03:53 28° E 22:07:19 10° NNE
TIMED 4.5 22:03:11 10° SSW 22:07:31 69° ESE 22:11:54 10° NNE
Cosmos 158 Rocket 3.8 22:05:15 10° NNW 22:10:12 90° ESE 22:15:04 10° SSE
Resurs 01 Rocket 4.5 22:09:40 10° WSW 22:11:48 13° W 22:13:56 10° WNW
YAOGAN 11 4.2 22:08:09 10° SSE 22:12:40 70° ENE 22:17:11 10° N
ATLAS 3B R/B 4.2 22:06:38 10° WSW 22:13:32 42° NNW 22:20:08 10° NE
Cosmos 2227 Rocket 4.2 22:11:16 10° N 22:15:06 18° NE 22:18:55 10° ENE
Cosmos 1892 4.4 22:11:48 10° SW 22:15:24 36° WNW 22:18:59 10° N
H-2A R/B 3.7 22:14:21 10° ESE 22:17:22 20° ENE 22:20:25 10° NNE
Cosmos 2219 4.2 22:15:07 10° NNW 22:20:27 37° NE 22:25:31 11° ESE
Gbstr 26 Del rocket 3.4 22:21:11 10° W 22:26:02 64° N 22:30:05 10° E
deb Kosmos-1763 4.4 22:22:48 10° NNW 22:26:33 64° WSW 22:29:55 12° S
ERS-1 Rocket 3.8 22:25:01 10° S 22:29:52 47° W 22:34:46 10° NNW
Molniya-1 2.0 22:29:00 10° SSW 22:30:34 51° SE 22:32:07 10° NE
Cosmos 1048 Rocket 4.4 22:26:07 10° NNW 22:31:25 65° WSW 22:36:25 11° S
Cosmos 1340 2.9 22:28:22 10° NNW 22:32:10 71° W 22:35:41 12° S
Cosmos 2279 Rocket 4.3 22:29:24 10° NNW 22:35:38 68° W 22:41:48 10° S
COSMOS 2455 3.0 22:29:39 10° SW 22:35:41 82° NW 22:41:45 10° NE
Cosmos 1943 Rocket 2.1 22:32:02 10° SSW 22:37:34 67° ESE 22:43:05 10° NNE
Okean 1-7 4.4 22:33:28 10° NNW 22:37:34 38° W 22:41:38 10° SSW
IGS 5A 4.1 22:34:56 17° SE 22:37:50 43° ENE 22:41:47 10° N
Cosmos 2263 4.2 22:36:00 10° SSW 22:41:46 86° ESE 22:47:32 10° NNE
Lacrosse 5 rocket 0.9 22:39:00 10° SW 22:42:33 62° SE 22:46:13 10° ENE
DMSP B5D2-2 4.4 22:37:34 10° NNE 22:42:37 47° E 22:46:54 14° S
Cosmos 1606 4.0 22:39:55 10° NNW 22:43:26 37° W 22:46:55 10° SSW
ISS -3.9 22:47:46 10° SW 22:50:58 58° SSE 22:54:10 10° ENE
Cosmos 2251 Rocket 3.7 22:45:52 10° NNW 22:51:05 60° ENE 22:54:41 20° SE
Landsat 7 3.8 22:51:55 17° SSE 22:55:36 86° WSW 23:00:24 10° NNW
Cosmos 2369 Rocket 2.9 22:50:26 10° SW 22:56:01 59° WNW 23:01:41 10° NNE
SPOT 1/Viking Rocket 3.9 22:53:09 13° S 22:57:45 62° WSW 23:02:57 10° NNW
USA 215 4.2 22:54:18 14° SSE 22:59:15 36° SW 23:05:13 10° WNW
Cosmos 1437 2.7 22:58:30 10° N 23:01:43 70° ENE 23:03:08 30° SSE
Cosmos 1346 2.9 22:59:45 10° N 23:02:26 57° ENE 23:03:11 38° SE
Cosmos 1733 Rocket 3.0 23:00:00 13° S 23:03:49 88° W 23:08:11 10° N
GEOS 3 Rocket 3.7 23:00:20 20° SSE 23:03:54 68° SW 23:09:10 10° NW
Cosmos 2344 3.7 22:58:06 10° SSW 23:05:38 66° ESE 23:14:21 10° NE
Sich 1 Rocket 4.1 23:05:22 24° SSE 23:07:38 43° E 23:11:51 10° NNE
Meteor 1-27 Rocket 4.4 23:03:22 10° NNW 23:08:58 51° W 23:14:05 12° SSW
Cosmos 372 Rocket 4.3 23:04:29 10° SSW 23:09:35 67° WNW 23:14:42 10° NNE
DNEPR-1 R/B 3.7 23:04:36 10° SW 23:09:36 84° NW 23:13:59 10° NE
Cosmos 2297 Rocket 3.6 23:05:33 10° NNW 23:10:30 30° NE 23:15:01 12° ESE
Terra 1.8 23:07:35 22° SSE 23:10:44 87° WSW 23:15:32 10° NNW
Cosmos 1125 Rocket 4.3 23:11:08 10° SW 23:16:15 52° WNW 23:21:22 10° NNE
ATLAS 5 CENTAUR R/B 3.4 23:12:54 10° NW 23:18:19 37° WSW 23:22:34 17° S
Cosmos 1975 Rocket 3.4 23:18:39 10° N 23:23:02 53° ENE 23:25:05 29° SE
CZ-4C R/B 4.2 23:21:54 10° NW 23:27:49 33° NNE 23:34:28 10° E
ALOS 2 4.4 23:26:39 15° E 23:28:52 21° ENE 23:32:11 10° NNE
CENTAUR R/B 2.9 23:24:29 10° SW 23:30:43 73° NW 23:37:57 10° NE
Lacrosse 4 Rocket 3.3 23:27:20 10° WNW 23:30:56 24° WSW 23:33:24 15° SSW
Cosmos 1867 3.8 23:26:01 10° NW 23:31:23 59° WSW 23:34:15 27° SSE
CARTOSAT-1 4.3 23:33:34 22° SSW 23:36:03 47° W 23:40:16 10° NNW
Cosmos 2026 Rocket 4.0 23:33:38 24° S 23:37:26 67° E 23:43:40 10° NNE
Meteor 2-20 Rocket 4.4 23:33:03 19° S 23:37:38 89° ESE 23:43:48 10° N
Cosmos 1378 Rocket 3.8 23:33:30 10° NNW 23:37:54 65° W 23:40:11 27° S
Cosmos 1656 Rocket 3.6 23:32:37 11° SSW 23:37:59 88° ESE 23:43:34 10° NNE
H-2A R/B 3.6 23:34:31 10° SSW 23:39:10 29° W 23:43:49 10° NW
CZ-4 R/B 3.8 23:35:30 10° NNE 23:40:09 65° ESE 23:42:17 31° S
Spot 4 3.8 23:40:29 30° SSE 23:42:54 84° W 23:47:45 10° NNW
Meteor 1-25 Rocket 4.4 23:39:55 27° SSE 23:43:03 62° E 23:48:49 10° NNE
CZ-2C R/B 3.7 23:41:46 25° ESE 23:44:15 42° ENE 23:48:51 10° N
ATLAS CENTAUR R/B 1.7 23:45:26 38° SE 23:45:32 38° ESE 23:49:07 10° NE
Cosmos 1417 Rocket 4.5 23:40:29 10° N 23:46:45 78° E 23:50:14 29° SSE
SL-19 R/B 4.5 23:46:31 10° NNE 23:52:31 87° WNW 23:57:05 19° SSW
H-2A R/B 2.6 23:51:22 29° SSW 23:53:06 48° W 23:57:07 10° NNW
S3M 4.0 23:47:23 10° N 23:53:30 69° ENE 23:56:39 30° SSE
Cosmos 1812 3.0 23:51:17 10° NNW 23:55:07 60° W 23:56:25 37° SSW
